Simultaneous Nadir Overpasses (SNOs) Predictions

Prediction of SNOs over PacNW region [( 10.00, 139.50) to ( 22.70, 165.60)] between AQUA and NPP Satellites:

Table of predicted SNOs over PacNW region for the next 30.0 days since TLE Epoch: 5/2/2014
Index Date (AQUA) Time (AQUA) AQUA Lat,Lon Date (NPP) Time (NPP) NPP Lat,Lon Distance(km) Time Diff (sec)
1 05/03/2014 03:29:02 10.09, 150.29 05/03/2014 03:29:16 9.74, 148.69 180.26 14
2 05/11/2014 02:40:30 13.19, 161.95 05/11/2014 02:39:38 12.93, 160.63 145.64 52
3 05/13/2014 16:22:11 10.02, 139.90 05/13/2014 16:18:41 6.87, 138.97 364.08 210
4 05/19/2014 03:29:03 10.09, 150.26 05/19/2014 03:29:41 9.76, 148.68 177.53 38
5 05/27/2014 02:39:50 11.28, 162.38 05/27/2014 02:39:29 11.01, 161.08 145.13 21




NCC Satellite Simultaneous Nadir Overpasses (SNOs) Prediction Service
